Time,TemperatureF,DewpointF,PressureIn,WindDirection,WindDirectionDegrees,WindSpeedMPH,WindSpeedGustMPH,Humidity,HourlyPrecipIn,Conditions,Clouds,dailyrainin,SoftwareType,DateUTC
2013-07-11 00:02:00,74.0,73.0,29.92,SE,145,0.0,0.0,96,0.00,,,0.31,,2013-07-11 04:02:00,
2013-07-11 00:32:00,74.0,73.0,29.92,SE,145,0.0,0.0,96,0.00,,,0.31,,2013-07-11 04:32:00,
2013-07-11 00:42:00,74.0,73.0,29.92,SE,145,0.0,0.0,96,0.00,,,0.31,,2013-07-11 04:42:00,
2013-07-11 00:53:00,74.0,73.0,29.92,SE,145,0.0,0.0,96,0.00,,,0.31,,2013-07-11 04:53:00,
2013-07-11 01:02:00,74.0,73.0,29.92,SE,145,0.0,0.0,96,0.00,,,0.31,,2013-07-11 05:02:00,
2013-07-11 01:22:00,74.0,73.0,29.92,SE,145,0.0,1.0,96,0.00,,,0.31,,2013-07-11 05:22:00,
2013-07-11 01:32:00,73.0,72.0,29.92,SE,145,0.0,2.0,96,0.00,,,0.31,,2013-07-11 05:32:00,
2013-07-11 01:43:00,73.0,71.0,29.91,SSE,152,1.0,6.0,95,0.00,,,0.31,,2013-07-11 05:43:00,
2013-07-11 01:52:00,74.0,72.0,29.90,South,173,1.0,8.0,95,0.00,,,0.31,,2013-07-11 05:52:00,
2013-07-11 02:01:00,74.0,72.0,29.90,South,170,3.0,4.0,95,0.00,,,0.31,,2013-07-11 06:01:00,
2013-07-11 02:12:00,74.0,72.0,29.90,SE,145,0.0,6.0,94,0.00,,,0.31,,2013-07-11 06:12:00,
2013-07-11 02:22:00,74.0,72.0,29.89,SSE,164,0.0,4.0,94,0.00,,,0.31,,2013-07-11 06:22:00,
2013-07-11 02:32:00,74.0,72.0,29.88,SSE,161,0.0,5.0,94,0.00,,,0.31,,2013-07-11 06:32:00,
2013-07-11 02:43:00,74.0,72.0,29.88,SSE,156,0.0,4.0,95,0.00,,,0.31,,2013-07-11 06:43:00,
2013-07-11 02:52:00,73.0,71.0,29.88,SSE,157,0.0,3.0,95,0.00,,,0.31,,2013-07-11 06:52:00,
2013-07-11 03:02:00,73.0,71.0,29.88,SSE,153,0.0,5.0,95,0.00,,,0.31,,2013-07-11 07:02:00,
2013-07-11 03:22:00,73.0,71.0,29.88,South,172,0.0,4.0,95,0.00,,,0.31,,2013-07-11 07:22:00,
2013-07-11 03:45:00,73.0,72.0,29.88,SSE,161,2.0,5.0,96,0.00,,,0.31,,2013-07-11 07:45:00,
2013-07-11 03:53:00,73.0,72.0,29.88,South,182,1.0,6.0,96,0.00,,,0.31,,2013-07-11 07:53:00,
2013-07-11 04:02:00,73.0,72.0,29.88,SE,142,0.0,5.0,96,0.00,,,0.31,,2013-07-11 08:02:00,
2013-07-11 04:22:00,73.0,72.0,29.88,South,170,0.0,5.0,96,0.00,,,0.31,,2013-07-11 08:22:00,
2013-07-11 04:34:00,73.0,72.0,29.88,SSW,210,1.0,5.0,96,0.00,,,0.31,,2013-07-11 08:34:00,
2013-07-11 04:43:00,73.0,72.0,29.88,SE,145,0.0,4.0,96,0.00,,,0.31,,2013-07-11 08:43:00,
2013-07-11 04:53:00,73.0,72.0,29.88,SSE,168,0.0,1.0,96,0.00,,,0.31,,2013-07-11 08:53:00,
2013-07-11 05:03:00,73.0,72.0,29.88,SSE,168,0.0,3.0,97,0.00,,,0.31,,2013-07-11 09:03:00,
2013-07-11 05:33:00,73.0,72.0,29.89,South,171,0.0,3.0,97,0.00,,,0.31,,2013-07-11 09:33:00,
2013-07-11 05:43:00,73.0,72.0,29.89,South,171,0.0,2.0,97,0.00,,,0.31,,2013-07-11 09:43:00,
2013-07-11 05:53:00,73.0,72.0,29.89,South,171,0.0,3.0,97,0.00,,,0.31,,2013-07-11 09:53:00,
2013-07-11 06:01:00,73.0,72.0,29.90,South,171,0.0,0.0,97,0.00,,,0.31,,2013-07-11 10:01:00,
2013-07-11 06:43:00,73.0,72.0,29.90,South,170,0.0,4.0,97,0.00,,,0.31,,2013-07-11 10:43:00,
2013-07-11 06:52:00,73.0,72.0,29.90,South,170,0.0,4.0,97,0.00,,,0.31,,2013-07-11 10:52:00,
2013-07-11 07:02:00,73.0,72.0,29.90,South,170,0.0,2.0,96,0.00,,,0.31,,2013-07-11 11:02:00,
2013-07-11 07:22:00,73.0,72.0,29.90,South,170,0.0,1.0,96,0.00,,,0.31,,2013-07-11 11:22:00,
2013-07-11 07:32:00,74.0,73.0,29.91,South,171,0.0,1.0,96,0.00,,,0.31,,2013-07-11 11:32:00,
2013-07-11 07:43:00,74.0,73.0,29.91,South,174,0.0,2.0,96,0.00,,,0.31,,2013-07-11 11:43:00,
2013-07-11 07:53:00,74.0,73.0,29.90,South,174,0.0,3.0,96,0.00,,,0.31,,2013-07-11 11:53:00,
2013-07-11 08:01:00,74.0,73.0,29.90,SSE,160,0.0,5.0,96,0.00,,,0.31,,2013-07-11 12:01:00,
2013-07-11 08:12:00,74.0,72.0,29.90,South,174,0.0,6.0,95,0.00,,,0.31,,2013-07-11 12:12:00,
2013-07-11 08:22:00,75.0,73.0,29.91,SSW,202,1.0,4.0,93,0.00,,,0.31,,2013-07-11 12:22:00,
2013-07-11 08:33:00,75.0,73.0,29.91,SSW,198,1.0,4.0,93,0.00,,,0.31,,2013-07-11 12:33:00,
2013-07-11 08:43:00,76.0,73.0,29.90,SW,219,1.0,3.0,91,0.00,,,0.31,,2013-07-11 12:43:00,
2013-07-11 09:13:00,77.0,73.0,29.91,WSW,247,0.0,4.0,87,0.00,,,0.31,,2013-07-11 13:13:00,
2013-07-11 10:05:00,78.0,73.0,29.91,SW,234,0.0,4.0,84,0.00,,,0.31,,2013-07-11 14:05:00,
2013-07-11 10:54:00,79.0,73.0,29.90,West,279,0.0,2.0,81,0.00,,,0.31,,2013-07-11 14:54:00,
2013-07-11 11:06:00,79.0,72.0,29.90,WNW,286,0.0,2.0,80,0.00,,,0.31,,2013-07-11 15:06:00,
2013-07-11 11:14:00,80.0,73.0,29.90,WSW,255,0.0,5.0,80,0.00,,,0.31,,2013-07-11 15:14:00,
2013-07-11 11:24:00,80.0,74.0,29.90,WSW,255,0.0,0.0,81,0.00,,,0.31,,2013-07-11 15:24:00,
2013-07-11 12:35:00,81.0,73.0,29.90,West,262,0.0,2.0,78,0.00,,,0.31,,2013-07-11 16:35:00,
2013-07-11 12:48:00,81.0,73.0,29.90,WNW,292,0.0,5.0,78,0.00,,,0.31,,2013-07-11 16:48:00,
2013-07-11 12:55:00,81.0,73.0,29.90,NNE,30,0.0,5.0,76,0.00,,,0.31,,2013-07-11 16:55:00,
2013-07-11 13:03:00,83.0,73.0,29.89,West,266,1.0,9.0,72,0.00,,,0.31,,2013-07-11 17:03:00,
2013-07-11 13:16:00,83.0,72.0,29.89,South,183,0.0,9.0,70,0.00,,,0.31,,2013-07-11 17:16:00,
2013-07-11 14:05:00,83.0,73.0,29.87,West,269,0.0,1.0,73,0.00,,,0.31,,2013-07-11 18:05:00,
2013-07-11 14:15:00,83.0,73.0,29.87,WNW,303,0.0,1.0,71,0.00,,,0.31,,2013-07-11 18:15:00,
2013-07-11 14:35:00,84.0,74.0,29.87,North,355,0.0,4.0,71,0.00,,,0.31,,2013-07-11 18:35:00,
2013-07-11 14:47:00,84.0,73.0,29.86,NW,305,0.0,2.0,70,0.00,,,0.31,,2013-07-11 18:47:00,
2013-07-11 15:05:00,83.0,74.0,29.85,WNW,293,1.0,4.0,74,0.00,,,0.31,,2013-07-11 19:05:00,
2013-07-11 15:39:00,79.0,72.0,29.86,SSE,165,0.0,7.0,79,0.01,,,0.32,,2013-07-11 19:39:00,
2013-07-11 15:45:00,77.0,71.0,29.86,SSW,202,0.0,1.0,83,0.04,,,0.35,,2013-07-11 19:45:00,
2013-07-11 15:56:00,76.0,72.0,29.85,SSW,202,0.0,0.0,86,0.04,,,0.35,,2013-07-11 19:56:00,
2013-07-11 16:07:00,75.0,72.0,29.85,SSW,202,0.0,0.0,90,0.04,,,0.10,,2013-07-11 20:07:00,
2013-07-11 16:13:00,74.0,71.0,29.85,SSW,202,0.0,0.0,90,0.05,,,0.11,,2013-07-11 20:13:00,
2013-07-11 16:47:00,74.0,72.0,29.85,SSW,198,0.0,2.0,92,0.07,,,0.17,,2013-07-11 20:47:00,
2013-07-11 16:54:00,74.0,72.0,29.86,SSE,161,0.0,4.0,93,0.08,,,0.18,,2013-07-11 20:54:00,
2013-07-11 17:05:00,73.0,71.0,29.85,SSE,155,0.0,1.0,94,0.12,,,0.19,,2013-07-11 21:05:00,
2013-07-11 17:15:00,73.0,71.0,29.85,SSE,156,0.0,1.0,94,0.13,,,0.21,,2013-07-11 21:15:00,
2013-07-11 17:45:00,73.0,72.0,29.85,SSE,155,1.0,4.0,96,0.14,,,0.28,,2013-07-11 21:45:00,
2013-07-11 18:54:00,73.0,72.0,29.84,SSE,161,0.0,0.0,96,0.02,,,0.28,,2013-07-11 22:54:00,
2013-07-11 19:06:00,73.0,72.0,29.84,SSE,161,0.0,0.0,96,0.04,,,0.30,,2013-07-11 23:06:00,
2013-07-11 19:26:00,73.0,72.0,29.85,SSE,161,0.0,0.0,97,0.10,,,0.36,,2013-07-11 23:26:00,
2013-07-11 19:36:00,73.0,72.0,29.85,SSE,161,0.0,0.0,97,0.12,,,0.38,,2013-07-11 23:36:00,
2013-07-11 19:47:00,73.0,72.0,29.85,SSE,161,0.0,0.0,97,0.12,,,0.38,,2013-07-11 23:47:00,
2013-07-11 19:55:00,73.0,72.0,29.85,SSE,161,0.0,0.0,97,0.10,,,0.38,,2013-07-11 23:55:00,
2013-07-11 20:26:00,73.0,72.0,29.83,SSE,161,0.0,0.0,97,0.03,,,0.38,,2013-07-12 00:26:00,
2013-07-11 20:37:00,73.0,72.0,29.83,SSE,161,0.0,0.0,97,0.00,,,0.38,,2013-07-12 00:37:00,
2013-07-11 21:05:00,73.0,72.0,29.83,SSE,161,0.0,0.0,97,0.01,,,0.39,,2013-07-12 01:05:00,
2013-07-11 21:37:00,73.0,72.0,29.84,South,174,0.0,6.0,98,0.01,,,0.39,,2013-07-12 01:37:00,
2013-07-11 22:07:00,73.0,72.0,29.85,SSE,149,0.0,0.0,98,0.00,,,0.39,,2013-07-12 02:07:00,
2013-07-11 22:45:00,72.0,71.0,29.85,SE,125,0.0,1.0,98,0.00,,,0.39,,2013-07-12 02:45:00,
2013-07-11 22:54:00,72.0,71.0,29.85,SE,125,0.0,2.0,98,0.00,,,0.39,,2013-07-12 02:54:00,
2013-07-11 23:04:00,72.0,71.0,29.85,SE,125,0.0,0.0,98,0.00,,,0.39,,2013-07-12 03:04:00,
2013-07-11 23:37:00,72.0,71.0,29.85,SE,125,0.0,0.0,98,0.00,,,0.39,,2013-07-12 03:37:00,
2013-07-11 23:46:00,72.0,71.0,29.85,SE,125,0.0,1.0,98,0.00,,,0.39,,2013-07-12 03:46:00,
2013-07-11 23:54:00,72.0,71.0,29.86,SE,128,0.0,3.0,98,0.00,,,0.39,,2013-07-12 03:54:00,